Weather History for Key West NAF, FL

Change the Weather History Date:

Saturday, October 20, 2012

  Actual Average Record
Temperature  
Mean Temperature 83 °F -  
Max Temperature 88 °F 83 °F 89 °F (1960)
Min Temperature 79 °F 75 °F 64 °F (1997)
Cooling Degree Days 18    
Growing Degree Days 33 (Base 50)    
Moisture  
Dew Point 72 °F    
Average Humidity 72    
Maximum Humidity 84    
Minimum Humidity 61    
Precipitation  
Precipitation 0.00 in - - ()
Sea Level Pressure  
Sea Level Pressure 29.89 in    
Wind  
Wind Speed 4 mph (NNW)    
Max Wind Speed 12 mph    
Max Gust Speed -    
Visibility 10 miles    
Events      
Averages and records for this station are not official NWS values.
T = Trace of Precipitation, MM = Missing Value Source: NWS Daily Summary

Daily Weather History Graph

Daily Weather History Graph

Search for Another Location

Airport:

Trip Planner

Search our weather history database for the weather conditions in past years. The results will help you decide how hot, cold, wet, or windy it might be!

Date:

Astronomy

Oct. 20, 2012 Rise Set
Actual Time 7:27 AM EDT 6:55 PM EDT
Civil Twilight 7:04 AM EDT 7:18 PM EDT
Nautical Twilight 6:37 AM EDT 7:44 PM EDT
Astronomical Twilight 6:11 AM EDT 8:11 PM EDT
Moon 12:44 PM EDT (10/20) 11:55 PM EDT (10/20)
Length of Visible Light 12h 14m
Length of Day
11h 27m
Waxing Crescent, 34% of the Moon is Illuminated
Oct 20
Waxing Crescent
Oct 21
First Quarter
Oct 29
Full
Nov 6
Last Quarter
Nov 13
New

Hourly Weather History & Observations

Time (EDT) Temp. Heat Index Dew Point Humidity Pressure Visibility Wind Dir Wind Speed Gust Speed Precip Events Conditions
12:53 AM 80.1 °F 84.5 °F 73.9 °F 81% 29.89 in 10.0 mi Calm Calm - N/A   Clear
1:53 AM 79.0 °F - 73.0 °F 82% 29.89 in 10.0 mi Calm Calm - N/A   Clear
2:53 AM 80.1 °F 84.5 °F 73.9 °F 81% 29.87 in 10.0 mi West 3.5 mph - N/A   Clear
3:53 AM 80.1 °F 84.5 °F 73.9 °F 81% 29.86 in 10.0 mi Calm Calm - N/A   Clear
4:53 AM 80.1 °F 84.5 °F 73.9 °F 81% 29.86 in 10.0 mi NW 3.5 mph - N/A   Clear
5:53 AM 80.1 °F 83.8 °F 72.0 °F 76% 29.88 in 10.0 mi NW 4.6 mph - N/A   Clear
5:57 AM 80.6 °F 84.6 °F 71.6 °F 74% 29.88 in 10.0 mi NW 4.6 mph - N/A   Clear
6:53 AM 80.1 °F 84.2 °F 73.0 °F 79% 29.89 in 10.0 mi NNW 4.6 mph - N/A   Clear
7:53 AM 79.0 °F - 73.9 °F 84% 29.90 in 10.0 mi Calm Calm - N/A   Scattered Clouds
8:53 AM 82.9 °F 89.4 °F 73.9 °F 74% 29.91 in 10.0 mi NW 6.9 mph - N/A   Partly Cloudy
9:53 AM 84.9 °F 91.4 °F 73.0 °F 67% 29.92 in 10.0 mi NW 6.9 mph - N/A   Clear
10:53 AM 86.0 °F 93.8 °F 73.9 °F 67% 29.92 in 10.0 mi NNW 10.4 mph - N/A   Scattered Clouds
11:53 AM 84.9 °F 92.1 °F 73.9 °F 69% 29.92 in 10.0 mi North 11.5 mph - N/A   Scattered Clouds
12:53 PM 84.9 °F 91.4 °F 73.0 °F 67% 29.91 in 10.0 mi North 11.5 mph - N/A   Scattered Clouds
1:53 PM 86.0 °F 92.2 °F 72.0 °F 63% 29.89 in 10.0 mi North 11.5 mph - N/A   Scattered Clouds
2:53 PM 87.1 °F 93.6 °F 72.0 °F 61% 29.87 in 10.0 mi NNE 6.9 mph - N/A   Mostly Cloudy
3:53 PM 86.0 °F 91.5 °F 71.1 °F 61% 29.85 in 10.0 mi NNE 6.9 mph - N/A   Mostly Cloudy
4:53 PM 84.9 °F 90.1 °F 71.1 °F 63% 29.85 in 10.0 mi Variable 4.6 mph - N/A   Mostly Cloudy
5:53 PM 84.9 °F 90.1 °F 71.1 °F 63% 29.85 in 10.0 mi North 6.9 mph - N/A   Mostly Cloudy
6:53 PM 82.0 °F 86.3 °F 71.1 °F 69% 29.87 in 10.0 mi North 4.6 mph - N/A   Scattered Clouds
7:53 PM 81.0 °F 84.4 °F 70.0 °F 69% 29.89 in 10.0 mi North 4.6 mph - N/A   Scattered Clouds
8:53 PM 80.1 °F 83.2 °F 70.0 °F 71% 29.91 in 10.0 mi NNW 6.9 mph - N/A   Scattered Clouds
9:53 PM 80.1 °F 83.2 °F 70.0 °F 71% 29.92 in 10.0 mi North 4.6 mph - N/A   Scattered Clouds
10:53 PM 80.1 °F 83.6 °F 71.1 °F 74% 29.93 in 10.0 mi North 3.5 mph - N/A   Clear
11:53 PM 81.0 °F 85.2 °F 72.0 °F 74% 29.94 in 10.0 mi North 3.5 mph - N/A   Clear